Weather History for Luxor, Egypt

Change the Weather History Date:

Saturday, June 1, 2013

  Actual Average Record
Temperature  
Mean Temperature 99 °F -  
Max Temperature 117 °F 102 °F - ()
Min Temperature 81 °F 74 °F - ()
Cooling Degree Days 34    
Growing Degree Days 49 (Base 50)    
Moisture  
Dew Point 49 °F    
Average Humidity 18    
Maximum Humidity 26    
Minimum Humidity 9    
Precipitation  
Precipitation 0.00 in 0.00 in - ()
Sea Level Pressure  
Sea Level Pressure 29.69 in    
Wind  
Wind Speed 3 mph ()    
Max Wind Speed 9 mph    
Max Gust Speed -    
Visibility 4.2 miles    
Events      
T = Trace of Precipitation, MM = Missing Value Source: Averaged Metar Reports

Daily Weather History Graph

Daily Weather History Graph

Search for Another Location

Airport:

Trip Planner

Search our weather history database for the weather conditions in past years. The results will help you decide how hot, cold, wet, or windy it might be!

Date:

Astronomy

Jun. 01, 2013 Rise Set
Actual Time 4:57 AM EET 6:36 PM EET
Civil Twilight 4:32 AM EET 7:01 PM EET
Nautical Twilight 4:01 AM EET 7:32 PM EET
Astronomical Twilight 3:29 AM EET 8:04 PM EET
Moon 12:03 AM EET (6/1) 12:20 PM EET (6/1)
Length of Visible Light 14h 29m
Length of Day
13h 38m
Last Quarter, 43% of the Moon is Illuminated
Jun 1
Last Quarter
Jun 8
New
Jun 16
First Quarter
Jun 23
Full
Jun 30
Last Quarter

Hourly Weather History & Observations

Time (EET) Temp. Heat Index Dew Point Humidity Pressure Visibility Wind Dir Wind Speed Gust Speed Precip Events Conditions
12:00 AM 89.6 °F - 46.4 °F 22% 29.71 in - South 3.5 mph - N/A   Clear
1:00 AM 89.6 °F - 44.6 °F 21% 29.68 in - East 2.3 mph - N/A   Clear
2:00 AM 87 °F - 37 °F 9% 29.67 in 6 mi Calm Calm - -  
2:00 AM 87.8 °F - 37.4 °F 17% 29.68 in - Calm Calm - N/A   Clear
3:00 AM 84.2 °F - 41.0 °F 22% 29.68 in - Calm Calm - N/A   Clear
4:00 AM 84.2 °F - 42.8 °F 23% 29.68 in - South 3.5 mph - N/A   Clear
5:00 AM 84.2 °F - 42.8 °F 23% 29.71 in - South 2.3 mph - N/A   Clear
6:00 AM 86.0 °F - 37.4 °F 18% 29.71 in - Calm Calm - N/A   Clear
7:00 AM 93.2 °F - 42.8 °F 17% 29.71 in - SE 3.5 mph - N/A   Clear
8:00 AM 93 °F - 53 °F 17% 29.71 in 4 mi NNW 4.6 mph - -   Haze
8:00 AM 93.2 °F 90.8 °F 53.6 °F 26% 29.71 in 3.7 mi WSW 4.6 mph - N/A   Unknown
9:00 AM 100.4 °F 98.4 °F 53.6 °F 21% 29.71 in 3.7 mi WSW 3.5 mph - N/A   Unknown
10:00 AM 105.8 °F - 48.2 °F 14% 29.71 in 3.7 mi SW 5.8 mph - N/A   Unknown
11:00 AM 109.4 °F - 50.0 °F 14% 29.71 in 3.7 mi SSW 2.3 mph - N/A   Unknown
12:00 PM 113.0 °F 112.0 °F 55.4 °F 15% 29.71 in 3.7 mi WSW 2.3 mph - N/A   Unknown
1:00 PM 113.0 °F 113.0 °F 57.2 °F 16% 29.68 in - North 2.3 mph - N/A   Clear
2:00 PM 114 °F - 56 °F 9% 29.65 in 4 mi WNW 4.6 mph - -   Haze
2:00 PM 114.8 °F 113.5 °F 55.4 °F 14% 29.68 in 3.7 mi WNW 4.6 mph - N/A   Unknown
3:00 PM 114.8 °F 113.5 °F 53.6 °F 14% 29.65 in 3.7 mi WNW 8.1 mph - N/A   Unknown
4:00 PM 114.8 °F 113.5 °F 53.6 °F 14% 29.65 in - WNW 5.8 mph - N/A   Clear
5:00 PM 109.4 °F 109.4 °F 57.2 °F 18% 29.65 in - WSW 2.3 mph - N/A   Clear
6:00 PM 109.4 °F 109.4 °F 57.2 °F 18% 29.65 in - WSW 2.3 mph - N/A   Clear
7:00 PM 102.2 °F 100.9 °F 55.4 °F 21% 29.65 in - West 2.3 mph - N/A   Clear
8:00 PM 100 °F - 53 °F 13% 29.66 in 6 mi WSW 2.3 mph - -  
8:00 PM 100.4 °F 98.4 °F 53.6 °F 21% 29.68 in - WSW 2.3 mph - N/A   Clear
9:00 PM 102.2 °F - 50.0 °F 17% 29.71 in - ENE 9.2 mph - N/A   Clear
10:00 PM 100.4 °F - 46.4 °F 16% 29.71 in - East 5.8 mph - N/A   Clear
11:00 PM 93.2 °F - 50.0 °F 23% 29.71 in - Calm Calm - N/A   Clear